This is the latest recevied weather packets stored in our database for station/object K1ADK-1. If no packets are shown the sender has not sent any weather packets the latest 10 day(s).
| Time | Temp. | Humidity | Pressure | Rain* | Wind** | Luminosity | Snow |
|---|---|---|---|---|---|---|---|
| 1778156116 | 10.56° C | 92% | 1010.5 hPa | 0 mm | - | 90 W/m² | - |
| 1778151316 | 10.56° C | 93% | 1009.8 hPa | 0.25 mm | - | 19 W/m² | - |
| 1778149516 | 10.56° C | 92% | 1009.2 hPa | 0.51 mm | - | 15 W/m² | - |
| 1778145915 | 10.56° C | 92% | 1008.9 hPa | 0.51 mm | - | 0 W/m² | - |
| 1778144715 | 10.56° C | 92% | 1008.9 hPa | 0.25 mm | - | 0 W/m² | - |
| 1778140516 | 10.56° C | 91% | 1009 hPa | 2.03 mm | - | 0 W/m² | - |
| 1778138716 | 10.56° C | 90% | 1008.6 hPa | 3.81 mm | - | 0 W/m² | - |
| 1778137515 | 11.11° C | 89% | 1008.2 hPa | 3.81 mm | - | 0 W/m² | - |
| 1778136316 | 11.67° C | 88% | 1008.2 hPa | 1.78 mm | - | 0 W/m² | - |
| 1778130335 | 13.33° C | 87% | 1007.6 hPa | 0 mm | - | 0 W/m² | - |
| 1778129135 | 13.89° C | 88% | 1007.9 hPa | 0 mm | - | 0 W/m² | - |
| 1778126135 | 14.44° C | 89% | 1008 hPa | 0.25 mm | - | 0 W/m² | - |
| 1778124915 | 15° C | 90% | 1008.1 hPa | 1.78 mm | - | 0 W/m² | - |
| 1778121317 | 15.56° C | 88% | 1008.1 hPa | 0.51 mm | - | 0 W/m² | - |
| 1778120717 | 15.56° C | 87% | 1007.9 hPa | 0 mm | - | 0 W/m² | - |
| 1778120117 | 15.56° C | 87% | 1007.8 hPa | 0 mm | - | 0 W/m² | - |
| 1778117137 | 15° C | 87% | 1007.9 hPa | 0 mm | - | 0 W/m² | - |
| 1778111737 | 15° C | 86% | 1007.9 hPa | 0 mm | - | 0 W/m² | - |
| 1778111117 | 15° C | 86% | 1007.9 hPa | 0 mm | - | 3 W/m² | - |
| 1778109917 | 15° C | 86% | 1007.8 hPa | 0 mm | - | 13 W/m² | - |
| 1778109317 | 15° C | 86% | 1007.6 hPa | 0 mm | - | 12 W/m² | - |
| 1778107517 | 15° C | 86% | 1007.5 hPa | 0 mm | - | 19 W/m² | - |
| 1778106317 | 15.56° C | 85% | 1007.3 hPa | 0 mm | - | 70 W/m² | - |
| 1778105717 | 15.56° C | 85% | 1007.4 hPa | 0 mm | - | 54 W/m² | - |
| 1778105137 | 15.56° C | 85% | 1007.2 hPa | 0 mm | - | 85 W/m² | - |
* Rain latest hour (hover to see other rain measurements)
** Current wind speed in m/s (hover to see current wind gust speed)